Weather in Bodmin

United Kingdom     50°28′02″N   4°43′24″W
temp.,
°C
wind,
m/s
gust,
m/s
humid.,
%
clouds,
%
prec.,
mm/h
press.,
hPa
HPBL,
m
6 may, thu
thu601:00+2sse1185100 0.0 100911
04:00+4sse2281100 0.1 100727
07:00+4se1194100 1.3 100681
10:00+6nne2485100 0.6 1006768
13:00+8n667439 1.1 10081150
16:00+9nnw77495 0.0 10091268
19:00+7nnw67645 0.0 10121076
22:00+2nnw33700 0.0 101430
7 may, fri
fri701:00+2nw22783 0.0 101518
04:00+2wnw22812 0.0 101610
07:00+4sw11781 0.0 101712
10:00+9sw225654 0.0 10181013
13:00+11s435020 0.0 10181612
16:00+10sse665397 0.0 10161139
19:00+8se586998 0.0 1015737
22:00+7se71282100 0.3 1013540
8 may, sat
sat801:00+7se101695100 0.7 1008687
04:00+11sse81698100 5.9 1003797
07:00+12ssw111997100 12.4 1000870
10:00+12ssw101897100 4.0 1000855
13:00+12ssw101897100 5.9 1000946
16:00+13ssw101796100 0.1 999885
19:00+12ssw101895100 0.2 9971045
22:00+12s101894100 0.1 9961011
9 may, sun
sun901:00+11ssw61298100 0.8 995790
04:00+9s61195100 0.5 993439
07:00+10ssw71294100 0.7 9931104
10:00+10s81390100 0.1 993994
13:00+13ssw11157919 0.9 9931420
16:00+13ssw10147951 0.6 9921309
19:00+11s9139283 1.4 9921021
22:00+9ssw7139679 0.3 993678
10 may, mon
mon1001:00+9ssw7139391 0.3 993686
04:00+8sw7128991 0.1 995738
07:00+8sw7129026 0.1 997822
10:00+11ssw914687 0.1 9991473
13:00+12ssw11156312 0.2 9991804
16:00+12ssw11186837 0.3 9991842
19:00+9ssw101879100 0.4 9991522
22:00+8ssw8139183 0.3 1001745